SCP
2 3 3 3 4 4 4 5 6 6 6 6 6 4 3 2 1 1 1 1 0 0 0 0 0 0 0 0 0 0 0 0 0 0 0 0 0 0 0 0 0 0 0
2 2 3 3 4 4 5 6 7 7 8 8 6 4 2 1 1 0 0 0 0 0 0 0 0 0 0 0 0 0 0 0 0 0 0 0 0 0 0 0 0 0 0
2 2 3 3 4 4 5 7 7 8 9 8 5 3 1 0 0 0 0 0 0 0 0 0 0 0 0 0 0 0 0 0 0 0 0 0 0 0 0 0 0 0 0
2 3 3 4 4 5 6 6 7 7 7 6 3 2 1 0 0 0 0 0 0 0 0 0 0 0 0 0 0 0 0 0 0 0 0 0 0 0 0 0 0 0 0
2 3 4 4 4 5 6 6 6 5 4 3 2 1 1 0 0 0 0 0 0 0 0 0 0 0 0 0 0 0 0 0 0 0 0 0 0 0 0 0 0 0 0
3 3 3 4 4 6 7 7 6 4 2 1 1 1 0 0 0 0 0 0 0 0 0 0 0 0 0 0 0 0 0 0 0 0 0 0 0 0 0 0 0 0 0
3 3 3 3 4 6 7 8 6 4 2 1 1 0 0 0 0 0 0 0 0 0 0 0 0 0 0 0 0 0 0 0 0 0 0 0 0 0 0 0 0 0 0
2 2 2 3 4 5 5 5 4 2 1 0 0 0 0 0 0 0 0 0 0 0 0 0 0 0 0 0 0 0 0 0 0 0 0 0 0 0 0 0 0 0 0
1 1 1 1 2 2 2 2 1 1 0 0 0 0 0 0 0 0 0 0 0 0 0 0 0 0 0 0 0 0 0 0 0 0 0 0 0 0 0 0 0 0 0
0 0 0 0 0 0 0 0 0 0 0 0 0 0 0 0 0 0 0 0 0 0 0 0 0 0 0 0 0 0 0 0 0 0 0 0 0 0 0 0 0 0 0
0 0 0 0 0 0 0 0 0 0 0 0 0 0 0 0 0 0 0 0 0 0 0 0 0 0 0 0 0 0 0 0 0 0 0 0 0 0 0 0 0 0 0
0 0 0 0 0 0 0 0 0 0 0 0 0 0 0 0 0 0 0 0 0 0 0 0 0 0 0 0 0 0 0 0 0 0 0 0 0 0 0 0 0 0 0
0 0 0 0 0 0 0 0 0 0 0 0 0 0 0 0 0 0 0 0 0 0 0 0 0 0 0 0 0 0 0 0 0 0 0 0 0 0 0 0 0 0 0
0 0 0 0 0 0 0 0 0 0 0 0 0 0 0 0 0 0 0 0 0 0 0 0 0 0 0 0 0 0 0 0 0 0 0 0 0 0 0 0 0 0 0
0 0 0 0 0 0 0 0 0 0 0 0 0 0 0 0 0 0 0 0 0 0 0 0 0 0 0 0 0 0 0 0 0 0 0 0 0 0 0 0 0 0 0
0 0 0 0 0 0 0 0 0 0 0 0 0 0 0 0 0 0 0 0 0 0 0 0 0 0 0 0 0 0 0 0 0 0 0 0 0 0 0 0 0 0 0
0 0 0 0 0 0 0 0 0 0 0 0 0 0 0 0 0 0 0 0 0 0 0 0 0 0 0 0 0 0 0 0 0 0 0 0 0 0 0 0 0 0 0
0 0 0 0 0 0 0 0 0 0 0 0 0 0 0 0 0 0 0 0 0 0 0 0 0 0 0 0 0 0 0 0 0 0 0 0 0 0 0 0 0 0 0
0 0 0 0 0 0 0 0 0 0 0 0 0 0 0 0 0 0 0 0 0 0 0 0 0 0 0 0 0 0 0 0 0 0 0 0 0 0 0 0 0 0 0
0 0 0 0 0 0 0 0 0 0 0 0 0 0 0 0 0 0 0 0 0 0 0 0 0 0 0 0 0 0 0 0 0 0 0 0 0 0 0 0 0 0 0
0 0 0 0 0 0 0 0 0 0 0 0 0 0 0 0 0 0 0 0 0 0 0 0 0 0 0 0 0 0 0 0 0 0 0 0 0 0 0 0 0 0 0
0 0 0 0 0 0 0 0 0 0 0 0 0 0 0 0 0 0 0 0 0 0 0 0 0 0 0 0 0 0 0 0 0 0 0 0 0 0 0 0 0 0 0
0 0 0 0 0 0 0 0 0 0 0 0 0 0 0 0 0 0 0 0 0 0 0 0 0 0 0 0 0 0 0 0 0 0 0 0 0 0 0 0 0 0 0
0 0 0 0 0 0 0 0 0 0 0 0 0 0 0 0 0 0 0 0 0 0 0 0 0 0 0 0 0 0 0 0 0 0 0 0 0 0 0 0 0 0 0
0 0 0 0 0 0 0 0 0 0 0 0 0 0 0 0 0 0 0 0 0 0 0 0 0 0 0 0 0 0 0 0 0 0 0 0 0 0 0 0 0 0 0
0 0 0 0 0 0 0 0 0 0 0 0 0 0 0 0 0 0 0 0 0 0 0 0 0 0 0 0 0 0 0 0 0 0 0 0 0 0 0 0 0 0 0
Wind_Speed
18 12 11 10 10 11 12 12 11 8 7 5 5 4 4 4 5 4 5 5 6 8 7 6 5 5 4 4 3 3 4 3 1 2 2 3 4 5 4 4 5 6 6
11 11 10 9 9 9 9 9 8 7 7 5 5 5 6 5 4 4 4 5 6 7 7 7 6 5 5 4 3 3 3 2 3 2 2 2 1 2 3 2 4 4 4
10 8 7 7 6 6 7 6 8 8 9 10 8 7 6 4 3 3 2 3 5 5 6 6 6 5 5 4 4 3 4 3 2 3 2 2 1 2 1 1 1 2 2
4 2 3 3 4 5 7 10 11 12 11 11 9 8 5 4 3 3 2 3 4 5 6 6 7 6 4 5 4 4 3 4 2 2 3 2 2 1 2 2 2 2 2
7 8 8 9 9 9 11 12 13 13 11 10 9 8 6 5 4 5 5 4 4 5 6 6 6 5 4 5 5 5 4 3 3 2 2 2 2 1 1 4 4 4 3
13 13 13 13 12 11 11 11 13 12 10 9 8 9 9 7 7 7 6 5 4 4 5 6 5 5 4 5 4 4 5 3 3 2 2 2 2 2 3 4 5 6 6
11 12 12 12 11 11 11 11 12 11 8 9 8 8 9 8 8 8 7 6 4 4 4 4 4 4 4 4 4 4 3 3 2 2 1 2 2 2 3 3 5 6 5
12 13 12 12 11 11 10 10 11 10 9 8 8 9 8 6 6 8 7 6 4 4 4 4 4 4 4 4 4 3 3 2 2 1 0 1 2 2 3 3 4 7 6
13 13 13 13 12 12 11 10 11 11 10 10 10 10 9 8 9 8 7 6 5 4 5 5 5 5 5 5 5 4 4 4 3 2 2 1 1 2 2 3 3 5 9
12 13 12 13 12 12 12 12 12 11 10 9 9 9 9 9 9 8 8 7 5 5 5 6 6 6 6 6 6 5 4 5 3 2 3 2 2 3 3 3 3 4 6
10 11 10 11 11 11 11 11 11 11 10 10 10 10 9 9 9 9 8 7 6 6 7 7 7 7 7 5 5 5 4 5 4 4 4 5 4 3 4 4 4 4 5
9 9 9 10 10 11 10 10 10 10 9 9 9 10 9 10 10 9 8 8 8 7 7 7 7 6 6 5 5 5 5 5 5 5 5 6 5 6 5 4 5 6 6
9 9 9 9 9 9 9 9 9 9 9 9 10 10 9 10 10 9 8 8 8 7 6 6 6 5 4 4 4 4 4 4 4 5 6 7 7 7 6 7 7 7 8
8 8 8 8 8 8 8 8 8 8 9 10 11 10 9 9 9 8 7 7 6 6 5 5 4 4 3 3 3 3 4 5 6 6 6 7 7 8 9 7 8 8 9
7 7 7 7 7 7 8 8 8 8 9 10 11 9 8 8 8 7 7 6 5 5 4 4 4 3 2 2 3 3 5 6 7 8 7 8 11 11 9 8 9 9 8
7 7 7 7 7 7 7 8 8 7 8 10 9 8 8 8 7 6 6 6 6 5 4 4 3 3 3 5 6 6 4 6 7 8 9 9 9 11 14 15 16 15 12
7 6 6 6 6 6 6 8 7 8 9 8 8 7 7 7 6 5 6 5 4 4 4 4 3 3 4 6 7 10 6 6 7 8 8 8 8 11 9 12 16 15 17
7 6 6 6 6 6 6 7 7 7 8 7 7 6 6 6 5 5 5 4 3 3 3 3 3 3 4 7 8 11 7 7 8 8 8 9 10 9 10 11 11 11 11
7 6 6 6 6 6 6 7 6 6 6 6 5 5 5 5 5 5 4 3 3 3 3 2 3 4 5 8 9 10 6 7 9 9 9 9 9 12 14 11 11 11 10
7 7 6 7 6 5 5 6 5 5 5 4 4 4 5 5 4 4 3 3 3 3 3 4 4 4 5 8 10 10 5 7 8 9 9 10 10 14 14 10 9 10 10
7 7 7 6 5 4 5 5 4 4 3 4 5 4 4 4 3 3 3 3 3 3 4 4 4 5 6 8 11 12 6 6 8 7 7 8 13 15 15 11 8 10 12
7 6 6 5 4 4 4 4 3 2 3 4 4 4 3 2 3 3 3 3 3 3 4 4 5 5 6 7 10 13 11 10 7 7 7 8 14 15 14 10 11 14 11
6 5 5 5 4 3 3 3 1 2 4 4 3 3 3 3 2 2 2 2 2 2 3 4 5 6 6 7 11 12 14 15 8 7 12 14 14 12 9 11 13 10 6
5 4 4 4 3 2 2 1 1 3 4 4 2 2 2 1 1 1 0 0 1 1 2 3 5 6 6 6 7 8 8 10 9 8 10 12 11 9 9 9 8 6 6
4 3 4 3 2 2 3 2 1 3 4 3 2 1 1 0 1 1 1 1 2 2 2 2 3 5 6 8 12 8 7 7 7 8 5 5 6 7 7 7 7 6 6
3 3 3 3 2 2 3 3 2 3 4 2 1 1 1 1 1 2 2 3 3 4 4 4 5 5 6 11 12 12 12 12 12 6 5 6 6 7 7 8 7 6 7
Wind_Direction
228 220 214 206 194 191 190 191 190 174 157 148 136 117 97 84 73 63 68 91 107 111 113 118 107 103 105 117 126 108 85 49 355 84 65 54 60 71 59 56 59 55 49
231 217 213 206 200 195 189 183 174 156 148 128 112 105 103 91 86 85 83 98 113 121 127 131 126 120 116 113 118 130 114 60 18 87 89 36 17 36 45 42 60 52 40
239 222 205 205 194 182 169 150 136 126 117 112 106 105 100 94 83 76 75 86 106 116 120 124 122 121 123 124 116 121 127 122 47 36 117 137 232 313 336 346 23 15 24
301 216 170 155 137 127 115 113 112 112 114 116 120 119 113 106 95 99 94 87 92 103 112 117 119 120 120 119 113 100 110 121 119 64 46 79 134 183 315 307 297 308 313
42 61 75 85 87 93 100 106 108 110 114 115 122 119 110 108 117 120 117 102 88 93 104 108 110 112 111 106 103 101 94 96 117 119 109 94 72 106 206 282 302 304 283
63 70 75 80 82 88 96 104 108 106 107 109 111 116 122 135 143 138 127 115 99 91 96 103 102 106 107 107 107 104 103 103 110 119 135 154 172 199 207 247 273 287 292
64 69 71 75 79 84 91 98 102 101 100 102 106 117 128 136 139 132 126 121 114 106 101 105 106 105 104 106 106 99 98 106 113 141 178 199 214 206 207 239 266 268 274
59 62 64 67 69 72 76 85 90 89 84 86 89 93 102 110 115 120 123 119 116 112 113 109 102 98 95 93 86 79 72 72 69 56 289 252 255 224 219 237 272 290 281
58 58 57 57 60 60 60 68 78 78 76 80 83 85 91 96 101 104 104 107 110 112 103 95 82 72 71 72 72 64 57 61 53 42 24 328 298 285 260 249 247 278 297
60 60 58 58 58 59 61 62 67 73 74 76 81 87 87 92 99 101 100 97 92 91 89 79 77 72 69 74 78 76 67 65 45 25 12 344 314 309 300 286 270 256 275
63 62 62 62 65 65 65 66 66 69 70 72 77 80 81 84 87 88 87 86 83 84 86 89 88 85 83 81 80 73 57 47 24 7 350 331 319 309 306 299 288 276 271
65 64 65 66 66 67 67 68 69 72 72 75 79 79 80 81 82 82 81 82 81 81 90 96 97 94 88 80 75 61 46 30 7 348 336 326 323 310 300 292 286 282 273
66 62 61 61 64 67 69 70 72 78 80 82 81 78 77 80 80 81 80 81 85 86 89 94 95 92 86 75 63 52 32 9 345 331 322 315 312 305 300 296 288 284 284
67 65 61 58 59 61 66 70 70 74 81 83 83 80 78 80 81 80 78 79 84 86 83 82 83 78 70 59 40 23 5 347 333 323 313 307 299 291 293 294 290 290 289
75 71 68 64 65 67 67 70 71 72 80 84 83 82 82 81 80 77 75 73 72 75 74 73 63 49 43 32 18 357 347 337 329 324 317 308 304 306 308 308 305 301 295
86 83 80 76 72 75 79 79 77 76 80 84 84 84 83 81 78 74 71 67 60 54 54 51 45 30 21 10 8 359 341 330 323 319 317 312 307 312 315 314 313 310 306
95 91 86 82 79 79 86 86 84 82 81 82 85 85 87 86 80 79 70 62 53 47 43 34 32 19 358 7 1 354 343 323 315 311 311 311 311 315 310 313 314 309 304
95 94 93 89 81 80 79 81 79 81 84 84 88 90 90 86 78 71 63 51 42 38 31 31 29 17 359 1 357 348 341 324 318 313 307 305 310 315 320 317 311 307 305
93 92 93 93 87 80 80 83 78 79 85 88 91 91 90 85 75 63 49 38 40 36 31 29 21 4 341 344 346 350 335 328 324 319 317 316 316 315 320 320 312 309 309
92 94 92 88 82 72 76 84 83 82 83 88 89 87 89 88 78 63 48 37 46 39 28 19 3 348 333 334 344 350 338 331 327 322 322 321 318 317 320 318 309 309 314
95 93 89 82 75 72 82 84 83 83 87 95 91 88 86 86 80 66 53 52 50 39 23 8 349 342 337 337 343 348 345 331 323 321 322 319 319 319 318 317 306 304 307
95 92 89 77 63 68 85 88 82 81 90 95 94 88 81 79 86 82 67 54 49 38 17 1 352 346 343 342 341 341 341 337 323 317 315 313 317 319 320 320 315 315 316
91 82 85 72 46 47 92 106 132 125 114 108 106 99 85 68 77 93 83 53 37 27 5 358 350 341 339 338 340 340 338 338 334 316 316 320 322 326 327 324 325 327 327
89 85 86 77 48 31 63 153 190 153 136 133 130 119 100 68 45 55 102 92 341 346 347 346 341 335 334 340 343 338 333 333 334 326 321 322 326 332 329 330 335 337 335
87 86 90 84 55 37 36 29 96 135 131 135 141 127 105 287 314 311 267 258 249 241 281 307 313 326 331 329 328 329 330 329 326 323 325 338 342 345 345 342 342 344 351
95 89 86 79 54 45 34 28 72 123 130 140 174 207 243 288 308 322 325 308 292 304 304 302 303 304 306 320 332 338 338 338 339 345 347 345 345 344 343 342 343 347 354